STARLINK-30311, 57637

Orbit data source: Space-Track

STARLINK-30311, 57637 is a payload satellite owned by SpaceX/Seattle (US) in LEO that was launched on Thu, 17 Aug 2023 UTC via an FALCON 9 launch vehicle from the Air Force Eastern Test Range (AFETR). Payload-class satellites include a variety of spacecraft equipped with specific instruments for various scientific and technological missions. These include communications satellites like Starlink; space stations such as the ISS; scientific satellites like the Hubble; Earth observation satellites from companies like Planet Labs, Umbra, and HawkEye 360; GPS; miniature CubeSats for education and research; and military/defense satellites.

Loading next visibility...
Identifier
57637, 2023-122F
Orbit
LEO
Country
Flag of USUS
Related business
Manufacturer
SpaceX/Seattle
Mission
Operational Commercial Communications
Bus & Motor
STARLINK V2M, Unknown motor
Mass
730 kg wet, ~700 kg dry
Launch date (UTC)
2023-08-17 (3 years ago)
Launch vehicle
FALCON 9
Launch site
Air Force Eastern Test Range (AFETR)
Object type
Payload
Rocket body
Debris
Shape & HBR
Box + 2 Pan, 17.7 m
Radar Cross Section
33.884 m², Large (>1 m²)

Expand to show TLE details & history
Last TLE update: 2 days ago

TLE from 2 days ago
0 STARLINK-30311
1 57637U 23122F   26171.23419823 -.00001017  00000-0 -27432-4 0  9990
2 57637  43.0043 233.0638 0001488 259.4668 100.6016 15.27588302157895
Epoch: 2026-06-20T05:37Z
TLE epoch observation values (Epoch: 2026-06-20T05:37:14.727Z)
Latitude
-0.00001°
Longitude
-119.69932°
Altitude
482.988 km
Speed
7.626 km/s
True Right ascension
15h 32m 15s
True Declination
0° 00' 00"
Sunlit
Object was in full shadow at epoch
Visualization orbit readout
Latitude
Unknown
Longitude
Unknown
Altitude
Unknown
Speed
Unknown
Apparent Right ascension
Unknown
Apparent Declination
Unknown
Sunlit
N/A
Visualization observer readout
Local Sidereal Time
00:50:40
Azimuth
Unknown
Elevation
Unknown
Doppler factor
Unknown
Orbital elements
Apogee altitude
485.99 km
Perigee altitude
483.947 km
Semi-major axis
6,863.106 km
Eccentricity
0.00015
Inclination
43.0043°
RAAN
233.0638°
Arg. of periapsis
259.4668°
True anomaly
100.61836°
Mean anomaly
100.6016°
Eccentric anomaly
100.60998°
Mean motion
3.81735 °/min
Orbital period
94.31 mins
BSTAR
-0.000027432
Loading maneuver chart data...
Computing Atmospheric mass density...
Loading historical data...
Loading historical data...
Loading historical data...
Loading historical data...
Loading historical data...
Loading historical data...
Loading historical data...

Documentation

Showing up to 5 results
|